Kuchera_Ratio
0.0 0.0 0.0 0.0 0.0 0.0 0.0 0.0 0.0 0.0 0.0 0.0 0.0 0.0 0.0 0.0 0.0 0.0 0.0 0.0 0.0 0.0 0.0 0.0 0.0 0.0 0.0 0.0 0.0 0.0 0.0 0.0 0.0 0.0 0.0 0.0 0.0 0.0
0.0 0.0 0.0 0.0 0.0 0.0 0.0 0.0 0.0 0.0 0.0 0.0 0.0 0.0 0.0 0.0 0.0 0.0 0.0 0.0 0.0 0.0 0.0 0.0 0.0 0.0 0.0 0.0 0.0 0.0 0.0 0.0 0.0 0.0 0.0 0.0 0.0 0.0
0.0 0.0 0.0 0.0 0.0 0.0 0.0 0.0 0.0 0.0 0.0 0.0 0.0 0.0 0.0 0.0 0.0 0.0 0.0 0.0 0.0 0.0 0.0 0.0 0.0 0.0 0.0 0.0 0.0 0.0 0.0 0.0 0.0 0.0 0.0 0.0 0.0 0.0
0.0 0.0 0.0 0.0 0.0 0.0 0.0 0.0 0.0 0.0 0.0 0.0 0.0 0.2 0.0 0.0 0.0 0.0 0.0 0.0 0.0 0.0 0.0 0.0 0.0 0.0 0.0 0.0 0.0 0.0 0.0 0.0 0.0 0.0 0.0 0.0 0.0 0.0
0.0 0.0 0.0 0.0 0.0 0.0 0.0 0.0 0.0 0.0 0.0 0.0 0.0 0.0 0.0 0.0 1.7 1.9 2.0 1.7 0.0 0.0 0.0 0.0 0.0 0.0 0.0 0.0 0.0 0.0 0.0 0.0 0.0 0.0 0.0 0.0 0.0 0.0
0.0 0.0 0.0 0.0 0.0 0.0 0.0 0.0 0.0 0.0 0.0 0.0 0.0 0.8 1.1 1.7 1.3 1.5 1.6 2.8 2.3 1.2 0.0 0.0 0.0 0.0 0.0 0.0 0.0 0.0 0.0 0.0 0.0 0.0 0.0 0.0 0.0 0.0
0.0 0.0 0.0 0.0 0.0 0.0 1.4 1.5 1.1 1.2 1.1 1.1 1.6 2.7 2.3 1.3 1.6 1.8 1.9 3.1 3.4 3.0 2.8 2.4 2.9 3.3 3.0 1.2 0.0 0.0 0.0 0.0 0.0 0.0 0.0 0.0 0.0 0.0
3.1 2.6 1.0 0.1 0.0 0.0 0.0 0.0 0.1 2.5 2.4 2.4 2.5 2.3 2.5 2.1 3.1 2.6 2.9 3.9 3.8 3.7 4.3 3.9 4.0 3.8 4.1 2.8 0.0 0.0 0.0 0.0 0.0 0.0 0.0 0.0 0.0 0.0
3.5 4.0 4.4 0.3 1.1 3.6 0.0 0.0 0.0 0.0 0.0 2.0 2.6 2.3 3.7 3.7 3.4 3.4 4.0 3.9 4.4 4.6 4.8 4.8 5.1 5.1 5.6 5.1 0.0 0.0 0.0 0.0 0.0 0.0 0.0 0.0 0.0 0.0
4.3 4.6 4.9 5.2 4.0 4.2 4.7 4.1 3.2 3.1 2.6 2.2 2.5 3.2 4.3 4.6 4.1 4.2 4.4 4.8 5.2 5.6 6.2 6.7 6.3 6.4 6.9 6.9 0.0 0.0 0.0 0.0 0.0 0.0 0.0 0.0 0.0 0.0
5.3 5.1 4.9 4.6 0.0 0.0 4.5 3.8 3.8 3.5 0.0 0.0 1.0 0.0 0.0 0.5 5.0 5.6 5.5 5.8 7.0 6.8 7.6 8.1 7.8 7.9 8.1 8.5 8.4 0.2 0.0 0.0 0.0 0.0 0.0 0.0 0.0 0.0
6.1 5.2 0.0 1.8 0.0 0.0 4.6 4.3 4.5 4.1 4.3 4.8 5.2 5.2 5.5 4.5 2.0 6.9 7.3 7.3 8.2 8.3 8.7 10.2 10.2 10.4 10.3 10.1 10.0 10.3 8.8 1.9 1.7 0.7 0.0 0.0 0.0 4.2
6.7 6.4 5.8 0.0 0.0 0.0 1.5 5.2 5.6 5.7 5.9 6.1 6.5 7.1 7.2 7.6 8.0 8.4 8.7 9.0 9.3 9.8 8.4 11.4 11.5 11.6 11.9 12.2 12.0 12.3 12.3 11.9 11.3 10.4 4.3 2.3 0.0 1.4
6.5 6.1 6.2 0.0 0.0 0.0 1.8 1.9 0.0 3.8 7.1 7.3 7.5 8.0 8.4 8.6 9.2 9.8 10.4 11.0 11.1 10.9 11.0 10.5 11.8 12.0 12.0 12.2 12.7 12.8 13.3 12.4 12.5 12.8 12.7 8.9 4.0 1.8
5.5 5.1 2.2 0.0 0.0 1.2 0.1 0.1 0.0 8.0 8.1 8.4 8.8 9.1 9.5 9.7 10.5 11.4 12.0 12.2 12.3 11.5 9.9 9.5 12.4 12.4 12.3 12.3 12.5 12.7 13.2 13.6 13.1 13.5 13.5 13.4 13.5 12.8
2.1 6.9 2.6 2.2 2.3 5.7 5.4 4.7 8.6 8.8 8.8 9.0 9.1 9.8 10.2 10.3 11.2 11.6 12.3 12.7 13.2 13.0 12.4 11.2 11.3 13.0 13.1 13.1 12.9 13.1 14.6 14.6 14.0 13.6 14.1 13.9 13.1 12.8
6.3 7.8 8.4 8.4 8.7 8.9 9.1 9.3 9.2 9.2 9.0 9.7 9.6 10.4 10.4 11.1 11.5 12.4 13.0 13.2 13.7 14.1 14.2 13.9 13.0 13.5 13.9 13.9 13.4 13.8 14.7 14.6 15.2 15.1 15.3 14.5 13.7 13.0
7.1 8.5 8.4 9.3 9.3 10.0 10.3 10.3 10.3 10.2 10.7 10.8 10.5 10.6 12.0 11.5 12.4 13.0 13.4 13.8 14.2 14.7 15.1 14.5 14.5 14.6 14.8 14.3 13.0 14.6 14.8 14.5 14.4 14.6 15.3 15.8 14.3 14.1
6.7 8.3 8.7 9.3 9.6 10.2 10.2 10.8 11.1 9.9 9.8 11.3 12.2 12.5 11.7 12.5 13.1 13.5 13.9 14.2 14.4 14.8 15.3 15.4 15.7 16.1 16.0 15.2 14.4 7.2 14.9 14.5 14.9 15.2 14.7 15.2 15.7 14.2
7.2 8.3 8.3 9.1 9.1 9.7 10.0 10.1 10.2 10.0 10.8 11.2 12.1 12.2 13.1 13.3 13.7 13.9 14.6 14.8 15.1 15.4 15.5 16.3 16.4 16.9 16.8 16.7 15.8 14.3 9.0 14.8 14.9 15.3 16.2 15.8 14.0 9.0
7.6 9.1 8.6 9.3 9.3 9.1 9.2 9.8 9.8 10.3 10.8 12.0 12.4 12.9 13.4 14.0 14.4 14.6 15.3 14.1 15.8 15.7 15.5 16.0 15.0 13.0 15.7 16.2 16.4 15.1 14.9 8.4 11.5 15.3 15.6 16.2 15.1 15.3
8.4 8.9 8.7 9.0 9.0 9.6 9.6 10.2 10.5 11.0 11.7 12.2 12.5 12.5 13.2 14.1 14.7 15.0 15.4 15.9 15.9 16.1 15.9 15.9 16.1 16.2 16.7 16.2 16.7 16.1 15.6 14.1 10.6 7.3 6.7 10.1 15.0 16.4
7.1 7.8 8.3 8.6 8.4 9.2 9.9 10.8 11.4 11.4 11.6 11.8 12.4 12.7 13.8 14.9 14.7 14.4 14.7 15.3 16.0 16.2 16.4 16.6 17.1 16.5 15.6 15.7 15.4 16.2 16.3 16.1 15.1 15.5 14.1 8.3 6.9 6.6